When you browse on this site, cookies collect data to enhance your experience and personalize the content and advertising you see.
Visit our Privacy Policy to learn more. By continuing to use the site, you agree to this use of cookies and data.
  • In Schweiz
  • Länderverzeichnis
  • Für 7 Tage
  • Wassertemperatur
  • Wetterkarte
  • Widgets
  • user-avatar
    Anmelden

    Stündliche Wetter Asadabad

    Heute, 23 Januar, Donnerstag

    Zeit Temperatur Niederschläge Wind Luftdruck Luftfeuchtigkeit
    00:00 +1°C° 0 mm 3 m/S 661 mmHg 50%
    01:00 +1°C° 0 mm 3 m/S 660 mmHg 47%
    02:00 0°C° 0 mm 3 m/S 660 mmHg 44%
    03:00 0°C° 0 mm 3 m/S 660 mmHg 42%
    04:00 0°C° 0 mm 3 m/S 659 mmHg 40%
    05:00 0°C° 0 mm 3 m/S 659 mmHg 37%
    06:00 0°C° 0 mm 3 m/S 659 mmHg 36%
    07:00 0°C° 0 mm 3 m/S 660 mmHg 34%
    08:00 -1°C° 0 mm 4 m/S 660 mmHg 33%
    09:00 +2°C° 0 mm 3 m/S 660 mmHg 29%
    10:00 +5°C° 0 mm 2 m/S 660 mmHg 26%
    11:00 +8°C° 0 mm 1 m/S 660 mmHg 22%
    12:00 +9°C° 0 mm 1 m/S 660 mmHg 22%
    13:00 +10°C° 0 mm 1 m/S 659 mmHg 22%
    14:00 +11°C° 0 mm 1 m/S 659 mmHg 22%
    15:00 +10°C° 0 mm 1 m/S 658 mmHg 27%
    16:00 +9°C° 0 mm 1 m/S 658 mmHg 31%
    17:00 +7°C° 0 mm 1 m/S 658 mmHg 35%
    18:00 +6°C° 0 mm 2 m/S 658 mmHg 37%
    19:00 +5°C° 0 mm 2 m/S 658 mmHg 39%
    20:00 +4°C° 0 mm 2 m/S 659 mmHg 40%
    21:00 +2°C° 0 mm 3 m/S 659 mmHg 39%
    22:00 +2°C° 0 mm 3 m/S 659 mmHg 37%
    23:00 +2°C° 0 mm 3 m/S 659 mmHg 36%

    Morgen, 24 Januar, Freitag

    Zeit Temperatur Niederschläge Wind Luftdruck Luftfeuchtigkeit
    00:00 +2°C° 0 mm 3 m/S 658 mmHg 34%
    01:00 +1°C° 0 mm 3 m/S 658 mmHg 32%
    02:00 +1°C° 0 mm 3 m/S 658 mmHg 30%
    03:00 +1°C° 0 mm 3 m/S 657 mmHg 29%
    04:00 +2°C° 0 mm 3 m/S 657 mmHg 28%
    05:00 +2°C° 0 mm 3 m/S 656 mmHg 28%
    06:00 +2°C° 0 mm 3 m/S 656 mmHg 28%
    07:00 +2°C° 0 mm 3 m/S 656 mmHg 28%
    08:00 +3°C° 0 mm 3 m/S 656 mmHg 28%
    09:00 +5°C° 0 mm 3 m/S 657 mmHg 27%
    10:00 +7°C° 0 mm 2 m/S 657 mmHg 25%
    11:00 +9°C° 0 mm 2 m/S 657 mmHg 24%
    12:00 +11°C° 0 mm 1 m/S 657 mmHg 25%
    13:00 +11°C° 0 mm 1 m/S 657 mmHg 26%
    14:00 +11°C° 0 mm 1 m/S 656 mmHg 27%
    15:00 +11°C° 0 mm 1 m/S 656 mmHg 32%
    16:00 +10°C° 0 mm 1 m/S 656 mmHg 37%
    17:00 +9°C° 0 mm 1 m/S 656 mmHg 41%
    18:00 +8°C° 0 mm 1 m/S 656 mmHg 45%
    19:00 +6°C° 0 mm 2 m/S 656 mmHg 48%
    20:00 +5°C° 0 mm 2 m/S 656 mmHg 52%
    21:00 +5°C° 0 mm 2 m/S 657 mmHg 53%
    22:00 +5°C° 0 mm 2 m/S 657 mmHg 54%
    23:00 +4°C° 0 mm 2 m/S 657 mmHg 54%

    übermorgen, 25 Januar, Samstag

    Zeit Temperatur Niederschläge Wind Luftdruck Luftfeuchtigkeit
    00:00 +4°C° 0 mm 2 m/S 657 mmHg 54%
    01:00 +3°C° 0 mm 3 m/S 656 mmHg 53%
    02:00 +3°C° 0 mm 3 m/S 656 mmHg 52%
    03:00 +2°C° 0 mm 3 m/S 656 mmHg 52%
    04:00 +2°C° 0 mm 3 m/S 656 mmHg 53%
    05:00 +2°C° 0 mm 3 m/S 656 mmHg 53%
    06:00 +2°C° 0 mm 3 m/S 656 mmHg 52%
    07:00 +3°C° 0 mm 3 m/S 656 mmHg 51%
    08:00 +3°C° 0 mm 3 m/S 657 mmHg 51%
    09:00 +6°C° 0 mm 2 m/S 657 mmHg 49%
    10:00 +7°C° 0 mm 2 m/S 657 mmHg 47%
    11:00 +9°C° 0 mm 2 m/S 657 mmHg 46%
    12:00 +9°C° 0 mm 2 m/S 657 mmHg 46%
    13:00 +11°C° 0 mm 1 m/S 656 mmHg 47%
    14:00 +11°C° 0 mm 1 m/S 655 mmHg 47%
    15:00 +11°C° 0 mm 1 m/S 655 mmHg 50%
    16:00 +10°C° 0 mm 1 m/S 655 mmHg 52%
    17:00 +10°C° 0 mm 1 m/S 655 mmHg 54%
    18:00 +8°C° 0 mm 1 m/S 656 mmHg 57%
    19:00 +7°C° 0 mm 1 m/S 656 mmHg 60%
    20:00 +6°C° 0 mm 1 m/S 656 mmHg 63%
    21:00 +6°C° 0 mm 1 m/S 656 mmHg 63%
    22:00 +6°C° 0 mm 1 m/S 657 mmHg 62%
    23:00 +4°C° 0 mm 2 m/S 657 mmHg 61%

    26 Januar, Sonntag

    Zeit Temperatur Niederschläge Wind Luftdruck Luftfeuchtigkeit
    00:00 +4°C° 0 mm 2 m/S 657 mmHg 61%
    01:00 +4°C° 0 mm 2 m/S 656 mmHg 60%
    02:00 +3°C° 0 mm 2 m/S 656 mmHg 60%
    03:00 +3°C° 0 mm 2 m/S 656 mmHg 58%
    04:00 +3°C° 0 mm 2 m/S 656 mmHg 56%
    05:00 +3°C° 0 mm 2 m/S 656 mmHg 54%
    06:00 +3°C° 0 mm 2 m/S 656 mmHg 53%
    07:00 +3°C° 0 mm 2 m/S 656 mmHg 51%
    08:00 +3°C° 0 mm 2 m/S 657 mmHg 49%
    09:00 +5°C° 0 mm 2 m/S 657 mmHg 45%
    10:00 +8°C° 0 mm 1 m/S 657 mmHg 41%
    11:00 +9°C° 0 mm 1 m/S 657 mmHg 37%
    12:00 +10°C° 0 mm 1 m/S 656 mmHg 38%
    13:00 +11°C° 0 mm 1 m/S 656 mmHg 38%
    14:00 +11°C° 0 mm 1 m/S 655 mmHg 39%
    15:00 +11°C° 0 mm 1 m/S 655 mmHg 42%
    16:00 +10°C° 0 mm 1 m/S 655 mmHg 45%
    17:00 +10°C° 0 mm 1 m/S 655 mmHg 48%
    18:00 +9°C° 0 mm 1 m/S 655 mmHg 52%
    19:00 +7°C° 0 mm 1 m/S 655 mmHg 56%
    20:00 +6°C° 0 mm 1 m/S 656 mmHg 60%
    21:00 +5°C° 0 mm 2 m/S 656 mmHg 58%
    22:00 +5°C° 0 mm 2 m/S 656 mmHg 55%
    23:00 +4°C° 0 mm 3 m/S 656 mmHg 53%

    27 Januar, Montag

    Zeit Temperatur Niederschläge Wind Luftdruck Luftfeuchtigkeit
    00:00 +3°C° 0 mm 3 m/S 656 mmHg 51%
    01:00 +3°C° 0 mm 3 m/S 655 mmHg 49%
    02:00 +3°C° 0 mm 3 m/S 655 mmHg 47%
    03:00 +3°C° 0 mm 3 m/S 655 mmHg 46%
    04:00 +2°C° 0 mm 3 m/S 654 mmHg 45%
    05:00 +2°C° 0 mm 3 m/S 654 mmHg 45%
    06:00 +2°C° 0 mm 3 m/S 654 mmHg 43%
    07:00 +2°C° 0 mm 3 m/S 655 mmHg 42%
    08:00 +2°C° 0 mm 3 m/S 655 mmHg 40%
    09:00 +5°C° 0 mm 2 m/S 655 mmHg 36%
    10:00 +7°C° 0 mm 2 m/S 655 mmHg 32%
    11:00 +9°C° 0 mm 1 m/S 655 mmHg 28%
    12:00 +10°C° 0 mm 1 m/S 655 mmHg 28%
    13:00 +11°C° 0 mm 1 m/S 654 mmHg 27%
    14:00 +11°C° 0 mm 1 m/S 654 mmHg 27%
    15:00 +11°C° 0 mm 1 m/S 654 mmHg 31%
    16:00 +10°C° 0 mm 1 m/S 654 mmHg 34%
    17:00 +10°C° 0 mm 1 m/S 654 mmHg 38%
    18:00 +9°C° 0 mm 1 m/S 654 mmHg 39%
    19:00 +7°C° 0 mm 2 m/S 654 mmHg 40%
    20:00 +6°C° 0 mm 2 m/S 655 mmHg 41%
    21:00 +6°C° 0 mm 2 m/S 655 mmHg 41%
    22:00 +6°C° 0 mm 2 m/S 655 mmHg 40%
    23:00 +5°C° 0 mm 2 m/S 655 mmHg 39%

    28 Januar, Dienstag

    Zeit Temperatur Niederschläge Wind Luftdruck Luftfeuchtigkeit
    00:00 +5°C° 0 mm 2 m/S 655 mmHg 38%
    01:00 +5°C° 0 mm 2 m/S 655 mmHg 38%
    02:00 +4°C° 0 mm 2 m/S 654 mmHg 37%
    03:00 +4°C° 0 mm 2 m/S 654 mmHg 36%
    04:00 +3°C° 0 mm 2 m/S 654 mmHg 36%
    05:00 +2°C° 0 mm 3 m/S 654 mmHg 35%
    06:00 +2°C° 0 mm 3 m/S 654 mmHg 34%
    07:00 +2°C° 0 mm 3 m/S 654 mmHg 33%
    08:00 +2°C° 0 mm 3 m/S 655 mmHg 33%
    09:00 +5°C° 0 mm 2 m/S 655 mmHg 29%
    10:00 +7°C° 0 mm 2 m/S 655 mmHg 25%
    11:00 +10°C° 0 mm 1 m/S 654 mmHg 21%
    12:00 +9°C° 0 mm 2 m/S 654 mmHg 21%
    13:00 +10°C° 0 mm 2 m/S 653 mmHg 22%
    14:00 +10°C° 0 mm 2 m/S 653 mmHg 22%
    15:00 +9°C° 0 mm 2 m/S 653 mmHg 26%
    16:00 +9°C° 0 mm 2 m/S 653 mmHg 30%
    17:00 +8°C° 0 mm 2 m/S 653 mmHg 35%
    18:00 +8°C° 0 mm 1 m/S 653 mmHg 39%
    19:00 +6°C° 0 mm 1 m/S 654 mmHg 43%
    20:00 +4°C° 0 mm 0 m/S 654 mmHg 47%
    21:00 +5°C° 0 mm 1 m/S 654 mmHg 47%
    22:00 +5°C° 0 mm 1 m/S 654 mmHg 46%
    23:00 +5°C° 0 mm 1 m/S 654 mmHg 46%
    Mehr zeigen